Location: Calgary
(51.0833°N, 114.0833°W)
Time: 00:55:00
(UTC-06:00)

ISS - Visible Passes

Search period start: 18 July 2018 00:00
Search period end: 28 July 2018 00:00
Orbit: 402 x 408 km, 51.6° (Epoch: 18 July)

Date Brightness Start Highest point End Pass type
(mag) Time Alt. Az. Time Alt. Az. Time Alt. Az.
18 Jul -2.8 00:33:03 30° ESE 00:33:03 30° ESE 00:35:08 10° E visible
18 Jul -3.9 02:05:36 14° W 02:08:23 84° NNW 02:11:42 10° E visible
18 Jul -3.9 03:41:39 10° W 03:44:57 85° SSW 03:48:15 10° ESE visible
18 Jul -2.9 23:37:15 10° SSW 23:40:03 26° SSE 23:42:53 10° E visible
19 Jul -4.0 01:13:00 10° WSW 01:16:17 82° SSE 01:19:35 10° E visible
19 Jul -3.8 02:49:32 10° W 02:52:50 83° N 02:56:08 10° E visible
19 Jul -3.5 04:26:05 10° W 04:29:13 42° SSW 04:32:22 10° SE visible
19 Jul -2.3 22:45:52 10° S 22:48:08 18° SE 22:50:25 10° E visible
20 Jul -3.9 00:20:56 10° WSW 00:24:11 64° SSE 00:27:27 10° E visible
20 Jul -3.8 01:57:24 10° W 02:00:41 78° N 02:03:59 10° E visible
20 Jul -3.9 03:33:55 10° W 03:37:11 60° SSW 03:40:25 10° ESE visible
20 Jul -3.6 23:28:59 10° SW 23:32:07 45° SSE 23:35:17 10° E visible
21 Jul -3.8 01:05:14 10° W 01:08:31 81° N 01:11:50 10° E visible
21 Jul -4.0 02:41:47 10° W 02:45:04 79° SSW 02:48:22 10° ESE visible
21 Jul -2.8 04:18:31 10° W 04:21:16 25° SSW 04:24:01 10° SSE visible
21 Jul -3.0 22:37:10 10° SSW 22:40:06 31° SSE 22:43:02 10° E visible
22 Jul -3.9 00:13:06 10° WSW 00:16:22 88° SSE 00:19:40 10° E visible
22 Jul -3.9 01:49:38 10° W 01:52:56 86° NNE 01:56:13 10° E visible
22 Jul -3.3 03:26:12 10° W 03:29:16 37° SSW 03:32:20 10° SE visible
22 Jul -3.9 23:20:58 10° WSW 23:24:14 71° SSE 23:27:30 10° E visible
23 Jul -3.8 00:57:27 10° W 01:00:45 79° N 01:03:20 15° E visible
23 Jul -2.7 02:33:59 10° W 02:35:53 30° W 02:35:53 30° W visible
23 Jul -3.7 22:28:55 10° SW 22:32:06 51° SSE 22:35:19 10° E visible
24 Jul -3.8 00:05:16 10° W 00:08:33 79° N 00:11:51 10° E visible
24 Jul -3.6 01:41:48 10° W 01:44:34 58° WSW 01:44:34 58° WSW visible
24 Jul -3.9 23:13:04 10° W 23:16:21 87° N 23:19:39 10° E visible
25 Jul -3.9 00:49:37 10° W 00:52:54 89° S 00:53:39 50° ESE visible
25 Jul -1.1 02:26:13 10° W 02:26:16 10° W 02:26:16 10° W visible
25 Jul -3.9 22:20:53 10° WSW 22:24:10 78° SSE 22:27:27 10° E visible
25 Jul -3.8 23:57:24 10° W 00:00:42 81° N 00:02:53 19° E visible
26 Jul -2.2 01:33:56 10° W 01:35:30 24° W 01:35:30 24° W visible
26 Jul -3.7 23:05:11 10° W 23:08:28 78° N 23:11:45 10° E visible
27 Jul -3.9 00:41:42 10° W 00:44:49 64° SW 00:44:49 64° SW visible
27 Jul -3.7 22:12:56 10° W 22:16:13 84° N 22:19:31 10° E visible
27 Jul -4.0 23:49:28 10° W 23:52:46 84° SSW 23:54:09 32° ESE visible
